[[{"header":{"parameterUnit":"m.s-1","parameterCategory":1,"la1":30.2991,"la2":30.254,"lo1":-89.0895,"lo2":-89.0444,"dx":0.0017,"dy":0.0017,"nx":28,"ny":28,"refTime":"2023-02-06T09:00:00:Z","depth":0,"parameterNumber":2,"parameterNumberName":"U-component_of_WINDS"},"data":[0,0,0,0,0,0,0,0,0,0,0,0,0,0,0,0,0,0,0,0,0,0,0,0,0,0,0,0,0,0,0,0,0,0,0,0,0,0,0,0,0,0,0,0,0,0,0,0,0,0,0,0,0,0,0,0,0,0,-4.6037,-4.6038,0,-4.6116,-4.6117,-4.6118,-4.6101,-4.6099,-4.6098,-4.6096,-4.6172,-4.6175,-4.6178,0,0,0,0,0,0,0,0,0,0,0,0,0,-4.5869,-4.5872,-4.6037,-4.6038,-4.6039,-4.6116,-4.6117,-4.6118,-4.6101,-4.6099,-4.6097,-4.6096,-4.6171,-4.6175,-4.6179,0,0,0,0,0,0,0,0,0,0,0,0,0,-4.5944,-4.5873,-4.6037,-4.604,-4.6041,-4.6115,-4.6117,-4.6118,-4.6101,-4.6099,-4.6097,-4.6095,-4.6169,-4.6174,-4.6179,-4.6254,0,0,-4.6195,-4.6197,0,0,0,0,0,0,0,0,-4.594,-4.595,-4.6038,-4.604,-4.6041,-4.6096,-4.6085,-4.6163,-4.6102,-4.6078,-4.6096,-4.6094,-4.6148,-4.6155,-4.6174,-4.6257,-4.6261,-4.6195,-4.6198,-4.62,-4.6202,0,0,0,0,0,0,0,-4.5934,-4.5947,-4.6068,-4.604,-4.6041,-4.6036,-4.6045,-4.61,-4.6124,-4.608,-4.6079,-4.6089,-4.6148,-4.6169,-4.6176,-4.6262,-4.6195,-4.6199,-4.6203,-4.6205,-4.6412,-4.6414,0,0,0,0,0,0,-4.5929,-4.5942,-4.6065,-4.607,-4.5984,-4.6041,-4.605,-4.6081,-4.6124,-4.6128,-4.6091,-4.6088,-4.6162,-4.617,-4.6178,-4.6269,-4.62,-4.6205,-4.6208,-4.6409,-4.6412,-4.6415,0,0,0,0,0,0,-4.5925,-4.594,-4.6062,-4.6006,-4.6021,-4.6046,-4.608,-4.6083,-4.6104,-4.6132,-4.6136,-4.6108,-4.616,-4.6171,-4.6236,-4.6271,-4.6207,-4.6212,-4.6406,-4.641,-4.6414,-4.645,0,0,0,0,0,0,-4.592,-4.5939,-4.5968,-4.6007,-4.6025,-4.6119,-4.6083,-4.6086,-4.6114,-4.6111,-4.6149,-4.6153,-4.616,-4.6229,-4.6241,-4.6277,-4.6216,-4.6403,-4.6408,-4.6413,-4.6446,-4.6454,-4.6462,0,0,0,0,0,-4.5914,-4.5973,-4.5969,-4.5984,-4.6062,-4.6121,-4.6131,-4.6139,-4.6117,-4.6146,-4.6164,-4.6152,-4.6266,-4.6235,-4.6249,-4.6287,-4.6401,-4.6407,-4.6412,-4.6442,-4.6453,-4.6462,0,0,0,0,0,0,-4.5934,-4.5978,-4.5974,-4.6048,-4.6082,-4.6118,-4.6155,-4.615,-4.6189,-4.6184,-4.6191,-4.62,-4.6266,-4.6283,-4.6248,-4.6362,-4.633,-4.6339,-4.6348,-4.6359,-4.6367,-4.636,-4.622,0,0,0,0,0,-4.5948,-4.5995,-4.603,-4.6091,-4.6109,-4.6129,-4.6156,-4.6159,-4.6193,-4.6207,-4.6229,-4.6262,-4.6305,-4.6333,-4.6375,-4.6449,-4.6457,-4.6483,-4.6491,-4.6497,-4.6504,-4.6545,-4.6557,-4.6433,-4.6433,-4.6433,0,0,-4.5975,-4.6005,-4.6033,-4.6096,-4.6123,-4.6169,-4.6141,-4.6191,-4.6226,-4.6214,-4.6276,-4.6295,-4.6332,-4.6402,-4.6434,-4.6418,-4.654,-4.6504,-4.6509,-4.6512,-4.6552,-4.6564,-4.6574,-4.6437,-4.6436,-4.6436,0,0,-4.6048,-4.6076,-4.6131,-4.6159,-4.6201,-4.6215,-4.6228,-4.6267,-4.6279,-4.6343,-4.6336,-4.6377,-4.6451,-4.6478,-4.6501,-4.6589,-4.6579,-4.6602,-4.6644,-4.6684,-4.6694,-4.6702,-4.6733,-4.6744,-4.6609,-4.6609,-4.6609,0,-4.6076,-4.6148,-4.6159,-4.6211,-4.6239,-4.6234,-4.6289,-4.6315,-4.6367,-4.6386,-4.6369,-4.6464,-4.6488,-4.6565,-4.6587,-4.6606,-4.6621,-4.6596,-4.6692,-4.67,-4.6709,-4.6738,-4.6749,-4.6612,-4.6612,-4.6611,-4.6611,0,-4.618,-4.623,-4.6269,-4.6322,-4.6355,-4.6408,-4.6426,-4.6458,-4.646,-4.6476,-4.6542,-4.6572,-4.6619,-4.6638,-4.664,-4.6716,-4.6705,-4.669,-4.6657,-4.6723,-4.675,-4.6761,-4.6615,-4.6614,-4.6614,-4.6613,0,0,-4.6264,-4.6326,-4.634,-4.6364,-4.6412,-4.645,-4.6503,-4.6552,-4.6579,-4.6616,-4.666,-4.6726,-4.6713,-4.674,-4.6745,-4.678,-4.6848,-4.6761,-4.6762,-4.6775,-4.6933,-4.6943,-4.6956,-4.6843,-4.6846,-4.6847,-4.693,0,-4.634,-4.6436,-4.6449,-4.6533,-4.658,-4.6578,-4.6624,-4.6658,-4.6675,-4.6716,-4.6735,-4.6781,-4.6761,-4.6777,-4.6812,-4.6832,-4.6879,-4.6827,-4.6883,-4.6885,-4.6871,-4.697,-4.698,-4.7056,-4.6941,-4.6943,-4.6944,0,-4.6441,-4.6484,-4.6573,-4.6616,-4.6636,-4.6678,-4.6725,-4.6765,-4.6803,-4.6813,-4.6845,-4.6847,-4.6902,-4.687,-4.6945,-4.6909,-4.6934,-4.6947,-4.6951,-4.6954,-4.6916,-4.6974,-4.7081,-4.7091,-4.6961,-4.696,-4.6959,0,-4.6492,-4.6572,-4.6636,-4.6657,-4.6709,-4.6739,-4.6761,-4.6798,-4.6828,-4.6869,-4.6888,-4.6935,-4.6959,-4.6995,-4.7009,-4.6985,-4.7084,-4.7053,-4.7093,-4.7092,-4.7111,-4.7109,-4.7221,-4.7131,-4.7131,-4.713,-4.713,0,-4.6574,-4.6628,-4.666,-4.6698,-4.676,-4.6776,-4.6835,-4.6857,-4.6891,-4.6933,-4.6935,-4.6974,-4.6992,-4.7034,-4.7046,-4.7107,-4.7118,-4.7127,-4.7129,-4.7126,-4.7124,-4.7139,-4.7134,-4.7133,-4.7133,-4.7132,-4.7132,0,-4.6639,-4.6662,-4.6732,-4.6777,-4.679,-4.6833,-4.6871,-4.6909,-4.6928,-4.6982,-4.6995,-4.7024,-4.7074,-4.7093,-4.7154,-4.7162,-4.7232,-4.7231,-4.7219,-4.7219,-4.7257,-4.7253,-4.738,-4.7398,-4.7299,-4.7299,-4.73,0,-4.6689,-4.6731,-4.6782,-4.6812,-4.6836,-4.6884,-4.6915,-4.6933,-4.6965,-4.7015,-4.7046,-4.7098,-4.7139,-4.722,-4.7245,-4.7292,-4.7291,-4.7333,-4.7297,-4.7293,-4.729,-4.7286,-4.729,-4.7338,-4.7339,-4.734,-4.734,0,-4.6774,-4.6784,-4.683,-4.6881,-4.6918,-4.6958,-4.6997,-4.7021,-4.7045,-4.7081,-4.7134,-4.7167,-4.7231,-4.7281,-4.7331,-4.7353,-4.735,-4.7352,-4.7364,-4.7359,-4.735,-4.7354,-4.7235,-4.7348,-4.7347,-4.7347,-4.7346,-4.7346,-4.6831,-4.6869,-4.6912,-4.6963,-4.6995,-4.7032,-4.7071,-4.7096,-4.7141,-4.7195,-4.7204,-4.726,-4.73,-4.7366,-4.7392,-4.7436,-4.7424,-4.7441,-4.7445,-4.7448,-4.745,-4.7346,-4.7445,-4.7445,-4.7445,-4.7445,-4.7444,0,-4.6915,-4.6944,-4.6991,-4.7047,-4.7088,-4.7086,-4.7129,-4.7163,-4.7213,-4.7252,-4.7294,-4.7355,-4.7405,-4.7436,-4.7487,-4.7516,-4.7516,-4.7528,-4.7525,-4.753,-4.7458,-4.7443,-4.7528,-4.7528,-4.7527,-4.7527,-4.7527,-4.7527,-4.6964,-4.7028,-4.7044,-4.7125,-4.7152,-4.7209,-4.7235,-4.7269,-4.73,-4.7369,-4.7412,-4.7433,-4.7468,-4.7522,-4.7568,-4.7576,-4.7593,-4.7606,-4.7612,-4.7544,-4.7535,-4.7527,-4.7512,-4.761,-4.761,-4.768,-4.7681,-4.7682]},{"header":{"parameterUnit":"m.s-1","parameterCategory":1,"la1":30.2991,"la2":30.254,"lo1":-89.0895,"lo2":-89.0444,"dx":0.0017,"dy":0.0017,"nx":28,"ny":28,"refTime":"2023-02-06T09:00:00:Z","depth":0,"parameterNumber":3,"parameterNumberName":"V-component_of_WINDS"},"data":[0,0,0,0,0,0,0,0,0,0,0,0,0,0,0,0,0,0,0,0,0,0,0,0,0,0,0,0,0,0,0,0,0,0,0,0,0,0,0,0,0,0,0,0,0,0,0,0,0,0,0,0,0,0,0,0,0,0,2.2087,2.2087,0,2.2111,2.2112,2.2112,2.2115,2.2115,2.2115,2.2114,2.2134,2.2135,2.2135,0,0,0,0,0,0,0,0,0,0,0,0,0,2.2041,2.2041,2.2087,2.2087,2.2088,2.2111,2.2112,2.2112,2.2115,2.2115,2.2115,2.2114,2.2134,2.2135,2.2135,0,0,0,0,0,0,0,0,0,0,0,0,0,2.2062,2.2042,2.2087,2.2092,2.2093,2.2111,2.2112,2.2112,2.2115,2.2115,2.2115,2.2114,2.2133,2.2134,2.2136,2.2149,0,0,2.2139,2.2139,0,0,0,0,0,0,0,0,2.2061,2.2064,2.2091,2.2092,2.2093,2.211,2.2102,2.2124,2.2115,2.2106,2.2114,2.2114,2.2126,2.2128,2.2133,2.215,2.215,2.2139,2.214,2.214,2.214,0,0,0,0,0,0,0,2.206,2.2063,2.2096,2.2091,2.2092,2.2092,2.2095,2.2107,2.2117,2.2107,2.2108,2.2111,2.2126,2.2132,2.2133,2.2151,2.2139,2.214,2.2141,2.2141,2.2184,2.2184,0,0,0,0,0,0,2.2058,2.2062,2.2096,2.2097,2.2076,2.2094,2.2097,2.2105,2.2117,2.2119,2.2111,2.2111,2.213,2.2132,2.2134,2.2153,2.214,2.2141,2.2142,2.2183,2.2184,2.2184,0,0,0,0,0,0,2.2057,2.2061,2.2095,2.208,2.2084,2.2095,2.2104,2.2105,2.2111,2.212,2.2122,2.2115,2.213,2.2132,2.2146,2.2153,2.2142,2.2143,2.2183,2.2183,2.2184,2.2189,0,0,0,0,0,0,2.2055,2.206,2.2066,2.208,2.2085,2.2107,2.2104,2.2106,2.2113,2.2113,2.2124,2.2126,2.213,2.2145,2.2147,2.2155,2.2143,2.2182,2.2183,2.2184,2.2188,2.219,2.2191,0,0,0,0,0,2.2054,2.2064,2.2066,2.207,2.2092,2.2108,2.211,2.2116,2.2114,2.2119,2.2126,2.2125,2.2152,2.2146,2.2149,2.2157,2.2182,2.2183,2.2184,2.2188,2.219,2.2191,0,0,0,0,0,0,2.2047,2.2066,2.2068,2.2083,2.2095,2.2108,2.2115,2.2118,2.2128,2.2127,2.2133,2.2135,2.215,2.2154,2.2147,2.2172,2.2167,2.2168,2.2169,2.2171,2.2172,2.2171,2.2144,0,0,0,0,0,2.2048,2.2061,2.2076,2.2088,2.2094,2.2104,2.2111,2.2115,2.2126,2.2129,2.2137,2.2146,2.2157,2.2164,2.2174,2.2189,2.2193,2.2196,2.2198,2.2199,2.2201,2.2212,2.2215,2.2188,2.2188,2.2188,0,0,2.2049,2.2061,2.2068,2.2087,2.2096,2.2109,2.2107,2.2119,2.2129,2.2131,2.2146,2.2152,2.2163,2.2178,2.2185,2.2183,2.2209,2.22,2.2201,2.2202,2.2213,2.2216,2.2218,2.2189,2.2188,2.2188,0,0,2.2058,2.2067,2.2081,2.2091,2.2106,2.2113,2.2116,2.2131,2.2136,2.2152,2.2154,2.2165,2.2183,2.2192,2.2198,2.2216,2.2216,2.2218,2.2226,2.2237,2.2239,2.2241,2.225,2.2252,2.222,2.222,2.222,0,2.2057,2.2077,2.2086,2.21,2.211,2.2115,2.2129,2.2137,2.2154,2.216,2.2157,2.2183,2.219,2.221,2.2214,2.2219,2.2223,2.2217,2.2239,2.2241,2.2243,2.225,2.2253,2.222,2.222,2.222,2.222,0,2.2076,2.2091,2.2099,2.2119,2.2129,2.2142,2.2154,2.2163,2.2167,2.2175,2.2192,2.2202,2.2216,2.2221,2.2223,2.2241,2.224,2.2238,2.2232,2.2245,2.2253,2.2256,2.2221,2.2221,2.222,2.222,0,0,2.2079,2.2108,2.211,2.2121,2.214,2.2151,2.2165,2.2182,2.2191,2.2203,2.2216,2.2233,2.2233,2.2241,2.2245,2.2254,2.2271,2.2252,2.2252,2.2256,2.2294,2.2297,2.23,2.2271,2.2272,2.2272,2.2294,0,2.2092,2.212,2.2131,2.2154,2.2168,2.2176,2.2189,2.2202,2.221,2.2223,2.2232,2.2245,2.2242,2.2248,2.2258,2.2267,2.2278,2.2265,2.2284,2.2284,2.2282,2.2303,2.2305,2.2325,2.2297,2.2297,2.2298,0,2.2109,2.2126,2.2151,2.2172,2.2179,2.219,2.2208,2.2221,2.2236,2.2242,2.2253,2.2258,2.2274,2.2268,2.2291,2.2282,2.229,2.2296,2.2297,2.2299,2.2292,2.2308,2.2331,2.2335,2.2302,2.2302,2.2301,0,2.2111,2.2139,2.216,2.2168,2.2192,2.2201,2.2211,2.2227,2.2237,2.2252,2.226,2.2276,2.2284,2.2297,2.2306,2.23,2.2329,2.2323,2.2334,2.2334,2.234,2.2339,2.2366,2.2343,2.2343,2.2343,2.2343,0,2.2124,2.214,2.2162,2.2174,2.2193,2.2205,2.2223,2.2233,2.2248,2.2262,2.2268,2.2281,2.2292,2.2307,2.2314,2.2333,2.2336,2.2342,2.2343,2.2342,2.2341,2.2348,2.2347,2.2344,2.2344,2.2344,2.2344,0,2.213,2.2144,2.2167,2.219,2.2196,2.2209,2.2229,2.2241,2.2251,2.227,2.2275,2.229,2.2309,2.2319,2.234,2.2346,2.2368,2.2368,2.2364,2.2365,2.2376,2.2376,2.2409,2.2415,2.2387,2.2387,2.2387,0,2.2137,2.215,2.2176,2.2188,2.22,2.2217,2.223,2.2243,2.2255,2.2277,2.2287,2.2306,2.2322,2.2351,2.2364,2.2381,2.2383,2.2393,2.2385,2.2384,2.2385,2.2385,2.2387,2.2395,2.2395,2.2395,2.2395,0,2.215,2.2158,2.2177,2.2199,2.2214,2.2231,2.2248,2.2257,2.2274,2.2287,2.2308,2.2321,2.2346,2.2365,2.2385,2.2394,2.2398,2.2398,2.2402,2.2401,2.2398,2.2402,2.2369,2.2397,2.2397,2.2397,2.2397,2.2396,2.2158,2.2172,2.2193,2.2215,2.223,2.2247,2.2261,2.2275,2.2293,2.2317,2.2323,2.2345,2.2363,2.239,2.2401,2.2418,2.2416,2.2421,2.2423,2.2424,2.2426,2.2396,2.2421,2.2421,2.2421,2.2421,2.2421,0,2.2173,2.2189,2.2208,2.2234,2.2252,2.2257,2.2277,2.2291,2.2311,2.2329,2.2346,2.2371,2.2391,2.2407,2.2428,2.2439,2.2441,2.2444,2.2444,2.2447,2.2425,2.2421,2.2442,2.2442,2.2442,2.2442,2.2442,2.2442,2.2183,2.2207,2.2218,2.2251,2.2266,2.229,2.2301,2.2318,2.2333,2.2361,2.238,2.2391,2.2408,2.2431,2.2451,2.2455,2.2463,2.2465,2.247,2.245,2.2447,2.2445,2.2441,2.2467,2.2467,2.249,2.249,2.249]}]]